Tracking 27111 objects as of 28-Mar-2023
HD Live streaming from Space Station
objects crossing your sky now

STARLINK-5820

Track STARLINK-5820 now!
10-day predictions
STARLINK-5820 is classified as:


NORAD ID: 55781
Int'l Code: 2023-028AS
Perigee: 364.2 km
Apogee: 368.2 km
Inclination: 70.0 °
Period: 91.7 minutes
Semi major axis: 6737 km
RCS: Unknown
Launch date: March 3, 2023
Source: United States (US)
Launch site: AIR FORCE WESTERN TEST RANGE (AFWTR)
Your satellite tracking list
Your tracking list is empty




NASA's NSSDC Master Catalog

Two Line Element Set (TLE):
1 55781U 23028AS  23087.15457804  .00001917  00000-0  17703-4 0  9995
2 55781  70.0016  86.5976 0002967 267.9287  92.1569 15.69930758  4502
Source of the keplerian elements: AFSPC